{"data":{"norad_id":66769,"intl_designator":"2025-276DH","name":"SPEQTRE","alt_names":[],"object_type":"PAYLOAD","status":"ACTIVE","operator":null,"country":"SING","launch_date":"2025-11-28","launch_site_code":"AFWTR","launch_vehicle":null,"mission":null,"orbit_class":"UNKNOWN","rcs_meters":null,"size_class":null,"mass_kg":null,"dimensions":null,"purposes":[],"wikipedia_slug":null,"has_3d_model":false,"image_url":null,"decayed_at":null,"tle_current":{"epoch":"2026-09-18T23:34:50.955744Z","epoch_age_seconds":248663,"freshness":"STALE","line1":"1 66769U 25276DH  26261.98253421  .00002946  00000+0  13522-3 0  9993","line2":"2 66769  97.4123 334.3468 0000474 125.7959 234.3321 15.21197098 44690","mean_motion":15.21197098,"eccentricity":4.74e-5,"inclination_deg":97.4123,"raan_deg":334.3468,"arg_perigee_deg":125.7959,"mean_anomaly_deg":234.3321,"bstar":0.00013522,"rev_number":4469,"period_min":94.662289449095,"perigee_km":501.90247074944,"apogee_km":502.55472940832,"semimajor_km":6880.3656000789,"source":"CELESTRAK","updated_at":"2026-09-21T09:00:16.185740Z"}}}